Location: Ellerstadt
(49.4644°N, 8.2615°E)
Time: 04:56:42
(UTC+00:00)

IRIDIUM 100 - Pass Details

Date: 29 September 2021
Orbit: 776 x 779 km, 86.4° (Epoch: 15 October)

Event Time Altitude Azimuth Distance (km) Brightness Sun altitude
Exits shadow 00:15:31 17° 22° (NNE) 1,893 ? -41.3°
Drops below altitude 10° 00:16:46 10° 16° (NNE) 2,341 ? -41.3°
Sets 00:19:13 0° 10° (N) 3,273 ? -41.1°
